Tracking 19903 objects as of 17-Oct-2019
HD Live streaming from Space Station
objects crossing your sky now

IRIDIUM 33 DEB

Track IRIDIUM 33 DEB now!
10-day predictions


NORAD ID: 35616
Int'l Code: 1997-051QN
Perigee: 720.3 km
Apogee: 744.5 km
Inclination: 86.4 °
Period: 99.3 minutes
Semi major axis: 7103 km
RCS: 0.0074 m2 (small)
Launch date: September 14, 1997
Source: United States (US)
Launch site: TYURATAM MISSILE AND SPACE COMPLEX (TTMTR)

Note: This is SATELLITE DEBRIS
aabbcc
Your satellite tracking list
Your tracking list is empty




NASA's NSSDC Master Catalog

Two Line Element Set (TLE):
1 35616U 97051QN  19289.16802893  .00000600  00000-0  14905-3 0  9997
2 35616  86.3655 251.5723 0017033 248.7753 111.1632 14.50130720550201
Source of the keplerian elements: AFSPC